CPA891 ZSHC-ZYHB

Flight info

Callsign CPA891
Flight time N/A
Altitude 39100
Route SUP81D SUPAR B221 GOVNI V140 IDNIK V141 ALDAP/K0898S1160 B221 XDX/K0887S1190 DCT URBAD W172 IGDEG W173 NIXEP W8 DOBGA W202 UDETI A588 NULRA W206 MAGBI W656 ISLUK W629 LARUN LAR18A
Aircraft A346/H-SDE2E3FGHIJ3J4J5M1RWXY/LB1D1

Departure

Time 2026-05-04 15:46
Airport Hangzhou Xiaoshan International Airport (ZSHC)

Arrival

Time N/A
Airport Harbin Taiping International Airport (ZYHB)
Time Latitude Longitude Altitude Speed Heading
2026-05-04 15:09 30.23675 120.43482 50 ft 0 kts 243°
2026-05-04 15:30 30.23689 120.43506 50 ft 2 kts 223°
2026-05-04 15:30 30.23728 120.43530 49 ft 2 kts 189°
2026-05-04 15:31 30.23758 120.43530 48 ft 2 kts 168°
2026-05-04 15:31 30.23772 120.43525 48 ft 2 kts 156°
2026-05-04 15:32 30.23779 120.43521 48 ft 0 kts 152°
2026-05-04 15:34 30.23774 120.43524 48 ft 2 kts 152°
2026-05-04 15:34 30.23695 120.43572 49 ft 10 kts 153°
2026-05-04 15:35 30.23524 120.43672 47 ft 16 kts 153°
2026-05-04 15:35 30.23432 120.43726 47 ft 11 kts 153°
2026-05-04 15:35 30.23372 120.43761 47 ft 9 kts 153°
2026-05-04 15:36 30.23216 120.43771 47 ft 11 kts 212°
2026-05-04 15:36 30.23203 120.43760 47 ft 0 kts 213°
2026-05-04 15:36 30.23203 120.43761 47 ft 1 kts 213°
2026-05-04 15:37 30.23256 120.43800 47 ft 15 kts 212°
2026-05-04 15:37 30.23322 120.43847 47 ft 0 kts 200°
2026-05-04 15:37 30.23323 120.43848 47 ft 1 kts 192°
2026-05-04 15:37 30.23337 120.43842 47 ft 0 kts 101°
2026-05-04 15:38 30.23337 120.43843 47 ft 0 kts 93°
2026-05-04 15:38 30.23337 120.43848 47 ft 3 kts 86°
2026-05-04 15:39 30.23358 120.43926 45 ft 16 kts 65°
2026-05-04 15:39 30.23425 120.44080 44 ft 24 kts 63°
2026-05-04 15:39 30.23583 120.44439 47 ft 26 kts 63°
2026-05-04 15:40 30.23670 120.44637 47 ft 28 kts 62°
2026-05-04 15:40 30.23755 120.44829 47 ft 17 kts 63°
2026-05-04 15:40 30.23798 120.44927 47 ft 3 kts 63°
2026-05-04 15:40 30.23815 120.44966 47 ft 7 kts 67°
2026-05-04 15:41 30.23803 120.45014 47 ft 5 kts 133°
2026-05-04 15:41 30.23789 120.45027 47 ft 0 kts 147°
2026-05-04 15:43 30.23784 120.45031 47 ft 2 kts 147°
2026-05-04 15:44 30.23752 120.45053 47 ft 7 kts 150°
2026-05-04 15:44 30.23692 120.45073 47 ft 10 kts 201°
2026-05-04 15:44 30.23644 120.45002 47 ft 12 kts 241°
2026-05-04 15:44 30.23626 120.44961 47 ft 0 kts 243°
2026-05-04 15:45 30.23624 120.44955 47 ft 7 kts 243°
2026-05-04 15:45 30.23484 120.44642 47 ft 87 kts 243°
2026-05-04 15:46 30.23073 120.43716 48 ft 169 kts 243°
2026-05-04 15:46 30.22513 120.42381 663 ft 190 kts 244°
2026-05-04 15:46 30.21899 120.40969 1388 ft 210 kts 236°
2026-05-04 15:46 30.20941 120.39542 1639 ft 244 kts 224°
2026-05-04 15:47 30.19587 120.38090 1833 ft 283 kts 222°
2026-05-04 15:47 30.18106 120.36357 2006 ft 307 kts 225°
2026-05-04 15:47 30.16671 120.34622 2173 ft 285 kts 225°
2026-05-04 15:47 30.15374 120.33020 2337 ft 264 kts 227°
2026-05-04 15:48 30.14401 120.31335 2490 ft 245 kts 241°
2026-05-04 15:48 30.13669 120.29591 2661 ft 237 kts 243°
2026-05-04 15:48 30.12306 120.26117 3013 ft 237 kts 244°
2026-05-04 15:49 30.11625 120.24373 3191 ft 238 kts 244°
2026-05-04 15:49 30.10944 120.22633 3364 ft 238 kts 244°
2026-05-04 15:49 30.10249 120.20864 3679 ft 248 kts 244°
2026-05-04 15:49 30.09532 120.19070 4699 ft 249 kts 244°
2026-05-04 15:50 30.08783 120.17265 5785 ft 249 kts 244°
2026-05-04 15:50 30.08010 120.15475 6686 ft 255 kts 244°
2026-05-04 15:50 30.07200 120.13646 7577 ft 260 kts 244°
2026-05-04 15:50 30.06371 120.11789 8506 ft 263 kts 244°
2026-05-04 15:51 30.05530 120.09919 9399 ft 267 kts 244°
2026-05-04 15:51 30.04659 120.08032 10268 ft 271 kts 239°
2026-05-04 15:51 30.03348 120.06465 11134 ft 276 kts 212°
2026-05-04 15:51 30.01551 120.05747 12041 ft 278 kts 185°
2026-05-04 15:52 29.99642 120.06016 12868 ft 282 kts 162°
2026-05-04 15:52 29.97845 120.06953 13623 ft 288 kts 145°
2026-05-04 15:52 29.96564 120.08723 14364 ft 295 kts 111°
2026-05-04 15:52 29.96258 120.11042 15094 ft 298 kts 81°
2026-05-04 15:53 29.96710 120.13385 15716 ft 304 kts 73°
2026-05-04 15:53 29.97276 120.15786 16320 ft 313 kts 73°
2026-05-04 15:53 29.97823 120.18249 16975 ft 320 kts 75°
2026-05-04 15:53 29.98333 120.20724 17618 ft 326 kts 75°
2026-05-04 15:54 29.98837 120.23286 18238 ft 332 kts 75°
2026-05-04 15:54 29.99372 120.25932 18647 ft 341 kts 72°
2026-05-04 15:54 30.00152 120.28594 18779 ft 364 kts 65°
2026-05-04 15:54 30.01281 120.31336 18791 ft 390 kts 60°
2026-05-04 15:55 30.02572 120.34193 18780 ft 415 kts 59°
2026-05-04 15:55 30.03952 120.37218 18763 ft 439 kts 60°
2026-05-04 15:55 30.05399 120.40417 19082 ft 454 kts 60°
2026-05-04 15:55 30.06861 120.43688 19700 ft 459 kts 60°
2026-05-04 15:56 30.08324 120.46980 20358 ft 464 kts 60°
2026-05-04 15:56 30.09786 120.50277 20937 ft 471 kts 60°
2026-05-04 15:56 30.11219 120.53738 21497 ft 479 kts 68°
2026-05-04 15:56 30.11839 120.57555 22032 ft 487 kts 89°
2026-05-04 15:57 30.11325 120.61440 22621 ft 487 kts 110°
2026-05-04 15:57 30.10062 120.65010 23202 ft 489 kts 118°
2026-05-04 15:57 30.08610 120.68597 23689 ft 496 kts 118°
2026-05-04 15:57 30.07175 120.72250 24172 ft 502 kts 117°
2026-05-04 15:58 30.05788 120.76002 24660 ft 509 kts 116°
2026-05-04 15:58 30.04467 120.79761 25136 ft 515 kts 114°
2026-05-04 15:58 30.03690 120.83833 25506 ft 530 kts 95°
2026-05-04 15:58 30.04067 120.88113 25951 ft 536 kts 74°
2026-05-04 15:59 30.05548 120.92010 26411 ft 535 kts 54°
2026-05-04 15:59 30.07801 120.95416 26901 ft 534 kts 45°
2026-05-04 15:59 30.10222 120.98628 27310 ft 540 kts 45°
2026-05-04 15:59 30.12638 121.02007 27704 ft 547 kts 47°
2026-05-04 16:00 30.14999 121.05499 28118 ft 554 kts 48°